{"data":{"norad_id":69607,"epoch":"2026-09-19T21:18:18.383328Z","epoch_age_seconds":81719,"freshness":"FRESH","line1":"1 69607U 26140R   26262.88771277 -.00000518  00000+0 -38912-4 0  9998","line2":"2 69607  51.9013 321.8263 0000733   2.8009 357.2957 14.79927520 15512","mean_motion":14.7992752,"eccentricity":7.33e-5,"inclination_deg":51.9013,"raan_deg":321.8263,"arg_perigee_deg":2.8009,"mean_anomaly_deg":357.2957,"bstar":-3.8912e-5,"rev_number":1551,"period_min":97.302062468573,"perigee_km":629.03926455869,"apogee_km":630.06659190217,"semimajor_km":7007.6899282304,"source":"CELESTRAK","updated_at":"2026-09-20T09:00:25.002633Z"}}